This is the latest recevied weather packets stored in our database for station/object IK2ILW-6. If no packets are shown the sender has not sent any weather packets the latest 10 day(s).
| Time | Temp. | Humidity | Pressure | Rain* | Wind** | Luminosity | Snow |
|---|---|---|---|---|---|---|---|
| 1778051495 | 2.78° C | 96% | 1009 hPa | 1.02 mm | - | 185 W/m² | - |
| 1778051200 | 2.78° C | 97% | 1008.8 hPa | 1.02 mm | - | 137 W/m² | - |
| 1778050885 | 2.78° C | 97% | 1009 hPa | 2.03 mm | - | 148 W/m² | - |
| 1778050588 | 2.78° C | 96% | 1009.2 hPa | 1.02 mm | - | 236 W/m² | - |
| 1778050291 | 2.78° C | 96% | 1009.6 hPa | 2.03 mm | - | 79 W/m² | - |
| 1778049994 | 2.78° C | 96% | 1009.5 hPa | 2.03 mm | - | 39 W/m² | - |
| 1778049702 | 2.78° C | 96% | 1009.3 hPa | 3.05 mm | - | 79 W/m² | - |
| 1778049386 | 2.78° C | 96% | 1009.6 hPa | 4.06 mm | - | 81 W/m² | - |
| 1778049089 | 2.78° C | 96% | 1009.5 hPa | 6.1 mm | - | 32 W/m² | - |
| 1778048792 | 2.78° C | 96% | 1009.5 hPa | 7.11 mm | - | 21 W/m² | - |
| 1778048497 | 2.78° C | 97% | 1009.3 hPa | 7.11 mm | - | 30 W/m² | - |
| 1778048201 | 2.78° C | 97% | 1009.5 hPa | 7.87 mm | - | 72 W/m² | - |
| 1778047883 | 2.78° C | 97% | 1009.6 hPa | 7.87 mm | - | 26 W/m² | - |
| 1778047587 | 2.22° C | 97% | 1009.5 hPa | 9.91 mm | - | 26 W/m² | - |
| 1778047291 | 1.67° C | 97% | 1009.5 hPa | 8.89 mm | - | 40 W/m² | - |
| 1778046995 | 1.11° C | 97% | 1009.9 hPa | 9.91 mm | - | 26 W/m² | - |
| 1778046683 | 1.67° C | 97% | 1010.1 hPa | 8.89 mm | - | 14 W/m² | - |
| 1778046387 | 1.67° C | 97% | 1010.1 hPa | 9.91 mm | - | 11 W/m² | - |
| 1778046092 | 1.67° C | 97% | 1009.9 hPa | 8.89 mm | - | 14 W/m² | - |
| 1778045796 | 2.22° C | 97% | 1009.9 hPa | 7.87 mm | - | 16 W/m² | - |
| 1778045500 | 2.22° C | 97% | 1010 hPa | 6.1 mm | - | 9 W/m² | - |
| 1778045184 | 2.22° C | 97% | 1009.9 hPa | 5.08 mm | - | 5 W/m² | - |
| 1778044889 | 1.67° C | 97% | 1009.8 hPa | 5.08 mm | - | 12 W/m² | - |
| 1778044590 | 1.67° C | 97% | 1009.8 hPa | 4.06 mm | - | 25 W/m² | - |
| 1778044293 | 1.67° C | 97% | 1009.9 hPa | 3.05 mm | - | 16 W/m² | - |
* Rain latest hour (hover to see other rain measurements)
** Current wind speed in m/s (hover to see current wind gust speed)